McComb, MS

5:33 AM CDT on September 26, 2017 (GMT -0500)
McComb-Pike County-Lewis

Weather History for KMCB - October, 2011

Change the Weather History Date:

Saturday, October 15, 2011

  Actual Average Record
Temperature  
Mean Temperature 68 °F -  
Max Temperature 86 °F 79 °F 93 °F (2015)
Min Temperature 51 °F 52 °F 38 °F (1978)
Cooling Degree Days 2    
Growing Degree Days 18 (Base 50)    
Moisture  
Dew Point 54 °F    
Average Humidity 69    
Maximum Humidity 97    
Minimum Humidity 29    
Precipitation  
Precipitation 0.01 in - - ()
Sea Level Pressure  
Sea Level Pressure 30.07 in    
Wind  
Wind Speed 1 mph (NE)    
Max Wind Speed 7 mph    
Max Gust Speed -    
Visibility 10 miles    
Events      
Averages and records for this station are not official NWS values.
T = Trace of Precipitation, MM = Missing Value Source: NWS Daily Summary

Daily Weather History Graph

Daily Weather History Graph

Search for Another Location

Airport or City:

Trip Planner

Search our weather history database for the weather conditions in past years. The results will help you decide how hot, cold, wet, or windy it might be!

Date:

Astronomy

Oct. 15, 2011 Rise Set
Actual Time 7:04 AM CDT 6:30 PM CDT
Civil Twilight 6:40 AM CDT 6:54 PM CDT
Nautical Twilight 6:11 AM CDT 7:22 PM CDT
Astronomical Twilight 5:43 AM CDT 7:50 PM CDT
Moon 8:43 PM CDT (10/15) 10:13 AM CDT (10/15)
Length of Visible Light 12h 14m
Length of Day
11h 25m
Waning Gibbous, 89% of the Moon is Illuminated
Oct 15
Waning Gibbous
Oct 19
Last Quarter
Oct 26
New
Nov 2
First Quarter
Nov 10
Full

Hourly Weather History & Observations

Time (CDT) Temp. Heat Index Dew Point Humidity Pressure Visibility Wind Dir Wind Speed Gust Speed Precip Events Conditions
12:53 AM 55.0 °F - 52.0 °F 89% 30.03 in 10.0 mi Calm Calm - N/A   Clear
1:53 AM 54.0 °F - 52.0 °F 93% 30.04 in 10.0 mi Calm Calm - N/A   Clear
2:53 AM 54.0 °F - 52.0 °F 93% 30.04 in 10.0 mi Calm Calm - 0.01 in   Clear
3:53 AM 52.0 °F - 51.1 °F 97% 30.04 in 10.0 mi Calm Calm - N/A   Clear
4:53 AM 52.0 °F - 50.0 °F 93% 30.05 in 10.0 mi Calm Calm - N/A   Clear
5:53 AM 52.0 °F - 50.0 °F 93% 30.06 in 10.0 mi Calm Calm - N/A   Clear
6:53 AM 51.1 °F - 48.9 °F 92% 30.07 in 10.0 mi Calm Calm - N/A   Clear
8:53 AM 66.0 °F - 57.0 °F 73% 30.09 in 10.0 mi North 3.5 mph - N/A   Clear
9:53 AM 73.0 °F - 57.9 °F 59% 30.11 in 10.0 mi North 5.8 mph - N/A   Clear
10:53 AM 77.0 °F - 57.0 °F 50% 30.11 in 10.0 mi NNE 4.6 mph - N/A   Clear
12:53 PM 82.0 °F 81.3 °F 54.0 °F 38% 30.09 in 10.0 mi SE 4.6 mph - N/A   Clear
1:53 PM 84.0 °F - 51.1 °F 32% 30.06 in 10.0 mi Variable 6.9 mph - N/A   Clear
2:53 PM 84.9 °F - 50.0 °F 30% 30.04 in 10.0 mi SSE 6.9 mph - N/A   Clear
3:53 PM 84.9 °F - 48.9 °F 29% 30.04 in 10.0 mi ENE 3.5 mph - N/A   Clear
5:53 PM 82.0 °F 81.2 °F 53.1 °F 37% 30.04 in 10.0 mi Calm Calm - N/A   Clear
6:53 PM 72.0 °F - 57.9 °F 61% 30.06 in 10.0 mi Calm Calm - N/A   Clear
7:53 PM 66.9 °F - 57.0 °F 70% 30.07 in 10.0 mi Calm Calm - N/A   Clear
8:53 PM 64.0 °F - 57.0 °F 78% 30.08 in 10.0 mi Calm Calm - N/A   Clear
9:53 PM 62.1 °F - 55.9 °F 80% 30.09 in 10.0 mi Calm Calm - N/A   Clear
10:53 PM 61.0 °F - 55.0 °F 81% 30.10 in 10.0 mi Calm Calm - N/A   Clear
11:53 PM 60.1 °F - 55.9 °F 86% 30.11 in 10.0 mi Calm Calm - N/A   Clear